Estación de Tranapuente INIA

Ultimos registro cada 15 minutos 43
Estación Fecha / Hora Temperatura Humedad Lluvia Velocidad Dirección Radiación Presion
43 Tranapuente INIA 07-05-2026 10:30 10,3 76,5 0 0 4 303 1020
42 Tranapuente INIA 07-05-2026 10:15 10,3 80,1 0 0 9 212 1020
41 Tranapuente INIA 07-05-2026 10:00 10,5 75,6 0 0 8 213 1020
40 Tranapuente INIA 07-05-2026 09:45 10 74,6 0 0 0 296 1019
39 Tranapuente INIA 07-05-2026 09:30 9,4 80,7 0 0 0 222 1019
38 Tranapuente INIA 07-05-2026 09:15 8,8 86,3 0 0 0 184 1019
37 Tranapuente INIA 07-05-2026 09:00 7,5 93,8 0 0 0 107 1019
36 Tranapuente INIA 07-05-2026 08:45 6,8 96,8 0 0 0 54 1019
35 Tranapuente INIA 07-05-2026 08:30 6,8 95,8 0 0 0 26 1019
34 Tranapuente INIA 07-05-2026 08:15 6,1 95,4 0 0 0 12 1019
33 Tranapuente INIA 07-05-2026 08:00 5,8 98,5 0 0 0 12 1019
32 Tranapuente INIA 07-05-2026 07:45 5,6 98,7 0 0 0 2 1019
31 Tranapuente INIA 07-05-2026 07:30 5,6 97,8 0 0 0 1 1019
30 Tranapuente INIA 07-05-2026 07:15 5,9 97,1 0 0 0 0 1019
29 Tranapuente INIA 07-05-2026 07:00 6,6 95,2 0 0 0 0 1019
28 Tranapuente INIA 07-05-2026 06:45 7,4 93 0 0 0 0 1019
27 Tranapuente INIA 07-05-2026 06:30 7,4 86,2 0 0,2 304 0 1019
26 Tranapuente INIA 07-05-2026 06:15 7,5 91,7 0 0 0 0 1019
25 Tranapuente INIA 07-05-2026 06:00 7,9 87,5 0 0 0 0 1018
24 Tranapuente INIA 07-05-2026 05:45 8,3 79,6 0 0,1 252 0 1018
23 Tranapuente INIA 07-05-2026 05:30 8,5 78,4 0 1,2 254 0 1018
22 Tranapuente INIA 07-05-2026 05:15 9,1 79 0 2,9 248 0 1018
21 Tranapuente INIA 07-05-2026 05:00 9,3 74,2 0 0,5 300 0 1018
20 Tranapuente INIA 07-05-2026 04:45 9,6 72,2 0 1,6 260 0 1017
19 Tranapuente INIA 07-05-2026 04:30 9,6 71,5 0 2,2 256 0 1017
18 Tranapuente INIA 07-05-2026 04:15 9,7 76,5 0 0,9 259 0 1017
17 Tranapuente INIA 07-05-2026 04:00 9,8 72,5 0 0,7 276 0 1017
16 Tranapuente INIA 07-05-2026 03:45 9,4 72,5 0 0,6 286 0 1017
15 Tranapuente INIA 07-05-2026 03:30 8,4 84,4 0 0,2 271 0 1017
14 Tranapuente INIA 07-05-2026 03:15 8,2 97,1 0 0 0 0 1017
13 Tranapuente INIA 07-05-2026 03:00 8,3 96,6 0 0 0 0 1017
12 Tranapuente INIA 07-05-2026 02:45 8,7 94 0,2 0 0 0 1017
11 Tranapuente INIA 07-05-2026 02:30 9 88,6 0 0,2 246 0 1017
10 Tranapuente INIA 07-05-2026 02:15 9,2 86,9 0 1,5 251 0 1017
9 Tranapuente INIA 07-05-2026 02:00 9,3 89,6 0 1,7 238 0 1017
8 Tranapuente INIA 07-05-2026 01:45 9,3 94,8 0 0 236 0 1016
7 Tranapuente INIA 07-05-2026 01:30 9,3 94,2 0 0,3 278 0 1016
6 Tranapuente INIA 07-05-2026 01:15 9,2 93,9 0 1 279 0 1016
5 Tranapuente INIA 07-05-2026 01:00 9 97,7 0 0,1 280 0 1016
4 Tranapuente INIA 07-05-2026 00:45 9,3 95,8 0 0 324 0 1016
3 Tranapuente INIA 07-05-2026 00:30 9,4 96,8 0 0 0 0 1016
2 Tranapuente INIA 07-05-2026 00:15 9,5 96,1 0 0 294 0 1016
1 Tranapuente INIA 07-05-2026 00:00 9,6 95 0 0,3 270 0 1016